ONEWEB-0029 (45445 NORAD) Tracking and Keplerian Element Data

This shows tracking and keplerian element data for the satellite.

Feedback or suggestion? Click here.




ElementValue
Catalog45445
NameONEWEB-0029
Epoch Orbit1589
Epoch Day187.58334491
Epoch Year2020
RAAN104.2777
Inclination87.5791
Eccentricity0.0024841
Argument of Perigee270.3489
Mean Anonmoly43.2977
Mean Motion14.9014078
Decay Rate0.00041844
L11 45445U 20020X 20187.58334491 .00041844 00000-0 42783-2 0 9998
L22 45445 87.5791 104.2777 0024841 270.3489 43.2977 14.90140780 15890

Live tracking and technical data element details for ONEWEB-0029 (NORAD 45445). ONEWEB-0029 can be tracked NOW for your location showing map with azimuth and elevation plus other details from your city location.

Track the satellite on the map from your city or location and see movement details for azimuth, elevation, latitude, longitude, range, height, and movement on the map or in text.







IsCatalogInMostPopularTable: catalog: 45445, numindb: 20
Update: records affected: 1



GetName: 45445 ONEWEB-0029

Hit Count: updated at: Mon, 06 Jul 2020 05:53:51 GMT